Showing default

KUIPER-00160, 67765

Orbit data source: Space-Track

KUIPER-00160, 67765 is a payload satellite owned by Kuiper Systems (US) in LEO that was launched on Thu, 12 Feb 2026 UTC via an ARIANE 64 launch vehicle from the French Guiana (FRGUI). Payload-class satellites include a variety of spacecraft equipped with specific instruments for various scientific and technological missions. These include communications satellites like Starlink; space stations such as the ISS; scientific satellites like the Hubble; Earth observation satellites from companies like Planet Labs, Umbra, and HawkEye 360; GPS; miniature CubeSats for education and research; and military/defense satellites.

Loading next visibility...
Identifier
67765, 2026-030B
Orbit
LEO
Country
Flag of USUS
Related business
Manufacturer
Kuiper Systems
Mission
Operational Commercial Communications
Bus & Motor
KUIPER, Unknown motor
Mass
~490 kg wet, ~490 kg dry
Launch date (UTC)
2026-02-12 (4 months ago)
Launch vehicle
ARIANE 64
Launch site
French Guiana (FRGUI)
Object type
Payload
Rocket body
Debris
Shape & HBR
Box + 2 Pan, 3.4 m
Radar Cross Section
2.326 m², Large (>1 m²)

Expand to show TLE details & history
Last TLE update: 17 hours ago

TLE from 17 hours ago
0 KUIPER-00160
1 67765U 26030B   26171.15679222  .00025601  00000-0  66685-3 0  9991
2 67765  51.8820  83.9093 0006212  64.8666 295.2965 15.38691749 20852
Epoch: 2026-06-20T03:45Z
TLE epoch observation values (Epoch: 2026-06-20T03:45:46.847Z)
Latitude
-0.00006°
Longitude
119.0886°
Altitude
448.931 km
Speed
7.645 km/s
True Right ascension
05h 35m 38s
True Declination
0° 00' 00"
Sunlit
Object was in daylight at epoch
Visualization orbit readout
Latitude
Unknown
Longitude
Unknown
Altitude
Unknown
Speed
Unknown
Apparent Right ascension
Unknown
Apparent Declination
Unknown
Sunlit
N/A
Visualization observer readout
Local Sidereal Time
07:18:46
Azimuth
Unknown
Elevation
Unknown
Doppler factor
Unknown
Orbital elements
Apogee altitude
454.685 km
Perigee altitude
446.201 km
Semi-major axis
6,828.58 km
Eccentricity
0.00062
Inclination
51.882°
RAAN
83.9093°
Arg. of periapsis
64.8666°
True anomaly
295.23212°
Mean anomaly
295.2965°
Eccentric anomaly
295.26431°
Mean motion
3.84634 °/min
Orbital period
93.6 mins
BSTAR
0.00066685
Loading maneuver chart data...
Computing Atmospheric mass density...
Loading historical data...
Loading historical data...
Loading historical data...
Loading historical data...
Loading historical data...
Loading historical data...
Loading historical data...

Documentation

Showing up to 5 results
|